Content
SEND FEEDBACK

Daily
Averages
Monthly
Summary
United States of America

EAST DEERING, NEW HAMPSHIRE


Home > North America > United States > New Hampshire
Elevation: 790 feet     Latitude: 43 04N     Longitude: 071 42W

WEATHER
 
SELECT A DAY
Number of Records: 233,566;   Date Range: 1/1/95 - 11/25/14
 
SHARE

PRINT THIS DATA

[ ← Previous Day ]
WEATHER ALMANAC - FEBRUARY 13, 2013
[ Next Day → ]
[ °C ]   °F
Weather ElementAverageHighLow
Temperature31.3 °F39 °F (3:51 pm)24.1 °F (9:51 pm)
Dewpoint19.8 °F24.1 °F (1:51 am)18 °F (6:51 am)
Humidity64 %84 % (9:51 pm)43 % (3:51 pm)
Barometer29.80 in29.85 in (7:51 am)29.74 in (11:51 pm)
Wind Speed3.7 mph11.5 mph (2:51 am)
Weather ElementAverage
Visibility10 mi
Wind DirectionSSE (143.5 °)

Weather ElementTotal
Precipitation---
Heating Degree Days33.5 (Base 65)
Averaged from 23 records on February 13, 2013
WEATHER CONDITIONS BREAKOUT
WIND DIRECTION BREAKOUT
WEATHER BY HOUR - FEBRUARY 13, 2013
[ °C ]   °F
Local TimeTemperatureDewpointHumidityBarometerVisibilityWind DirectionWind SpeedGust SpeedPrecipitationEventsConditions
1:51 AM33.1 °F24.1 °F70 %29.81 in10.0 miWNW (300°)4.6 mphPartly Cloudy
2:51 AM32.0 °F21.0 °F64 %29.81 in10.0 miWNW (290°)11.5 mphClear
3:51 AM28.9 °F19.0 °F67 %29.82 in10.0 miNW (310°)4.6 mphClear
4:51 AM28.9 °F19.0 °F67 %29.83 in10.0 miVariable4.6 mphClear
5:51 AM28.0 °F19.0 °F69 %29.83 in10.0 miNW (310°)3.5 mphClear
6:51 AM25.0 °F18.0 °F75 %29.84 in10.0 miWNW (290°)5.8 mphClear
7:51 AM28.9 °F19.0 °F67 %29.85 in10.0 miCalmPartly Cloudy
8:51 AM32.0 °F19.9 °F61 %29.85 in10.0 miWNW (300°)9.2 mphClear
9:51 AM34.0 °F19.9 °F56 %29.84 in10.0 miNW (310°)9.2 mphPartly Cloudy
10:51 AM36.0 °F19.9 °F52 %29.83 in10.0 miNW (310°)9.2 mphClear
11:51 AM36.0 °F21.0 °F55 %29.81 in10.0 miWest (280°)9.2 mphMostly Cloudy
12:51 PM37.0 °F21.0 °F52 %29.80 in10.0 miNW (310°)6.9 mphOvercast
1:51 PM37.0 °F19.9 °F50 %29.79 in10.0 miWNW (290°)5.8 mphMostly Cloudy
2:51 PM37.9 °F19.9 °F48 %29.77 in10.0 miCalmOvercast
3:51 PM39.0 °F18.0 °F43 %29.76 in10.0 miCalmMostly Cloudy
4:51 PM37.0 °F19.0 °F48 %29.77 in10.0 miCalmPartly Cloudy
5:51 PM35.1 °F18.0 °F50 %29.75 in10.0 miCalmClear
6:51 PM26.1 °F19.9 °F78 %29.75 in10.0 miCalmClear
7:51 PM26.1 °F19.9 °F78 %29.76 in10.0 miCalmClear
8:51 PM25.0 °F19.9 °F81 %29.77 in10.0 miCalmClear
9:51 PM24.1 °F19.9 °F84 %29.76 in9.0 miCalmClear
10:51 PM26.1 °F19.9 °F78 %29.75 in10.0 miCalmMostly Cloudy
11:51 PM27.0 °F21.0 °F78 %29.74 in10.0 miCalmOvercast
Hourly data recorded from KCON, located miles away from East Deering, New Hampshire







STORIES FROM OUR PARTNERS